Hourly Data Report for October 03, 2017

All times are specified in Local Standard Time (LST). Add 1 hour to adjust for Daylight Saving Time where and when it is observed.

ISLAND LAKE A
MANITOBA

53°51'26.000" N
94°39'13.000" W
235.30 m
5061375
71145
YIV

Download Data

Hourly Data (October 2017)
Hourly Data Report for October 3, 2017
Temp Definition
°C
Dew Point Temp Definition
°C
Rel Hum Definition
%
Wind Dir Definition
10's deg

Wind Spd Definition
km/h
Visibility Definition
km
Stn Press Definition
kPa
Hmdx Definition


Wind Chill Definition


Weather Definition


TIME
00:00 Legend Double Dagger 11.3 8.7 84 23 13 24.1 98.17     Cloudy
01:00 Legend Double Dagger 10.6 8.5 86 24 8 24.1 98.21     LegendNANA
02:00 Legend Double Dagger 10.6 8.5 87 23 10 24.1 98.31     LegendNANA
03:00 Legend Double Dagger 10.2 8.5 89 25 8 24.1 98.31     Cloudy
04:00 Legend Double Dagger 10.2 8.8 91 25 12 24.1 98.38     Rain
05:00 Legend Double Dagger 6.7 5.7 94 36 19 19.3 98.54     Rain
06:00 Legend Double Dagger 5.7 5.0 96 36 23 12.9 98.67     Rain
07:00 Legend Double Dagger 5.0 4.2 94 1 15 16.1 98.80     Rain
08:00 Legend Double Dagger 4.4 3.8 96 2 18 4.0 98.92     Rain,Fog
09:00 Legend Double Dagger 4.1 3.0 92 3 19 4.0 99.03     Rain,Fog
10:00 Legend Double Dagger 4.4 2.8 90 3 18 6.4 99.05     Rain,Fog
11:00 Legend Double Dagger 5.2 2.8 84 5 11 19.3 99.09     Rain
12:00 Legend Double Dagger 5.3 3.2 86 3 18 19.3 99.09     Rain
13:00 Legend Double Dagger 5.3 3.7 89 1 13 24.1 99.09     LegendNANA
14:00 Legend Double Dagger 4.8 3.1 89 4 18 24.1 99.17     LegendNANA
15:00 Legend Double Dagger 5.4 2.9 84 4 17 24.1 99.22     Mostly Cloudy
16:00 Legend Double Dagger 5.5 2.1 79 6 8 24.1 99.25     LegendNANA
17:00 Legend Double Dagger 5.8 1.5 74 7 8 24.1 99.23     LegendNANA
18:00 Legend Double Dagger 5.3 1.3 75 9 8 24.1 99.23     Mainly Clear
19:00 Legend Double Dagger 4.7 1.5 80 5 6 24.1 99.22     LegendNANA
20:00 Legend Double Dagger 4.0 1.7 85 5 5 24.1 99.21     LegendNANA
21:00 Legend Double Dagger 4.0 1.6 84 4 7 24.1 99.15     Mostly Cloudy
22:00 Legend Double Dagger 4.8 2.1 83 12 8 24.1 99.11     LegendNANA
23:00 Legend Double Dagger 5.5 2.9 83 17 8 24.1 99.02     LegendNANA

Notes on Data Quality.

Legend

  • E = Estimated
  • M = Missing
  • NA = Not Available
  • ‡ = Partner data that is not subject to review by the National Climate Archives
Date modified: